CZ-6A DEB, 54337

Orbit data source: Space-Track

CZ-6A DEB, 54337 is space debris in SSO originally from a launch on Fri, 11 Nov 2022 UTC launched from the Taiyaun Space Center, China (TSC). Debris objects in space refer to the collection of defunct objects orbiting the Earth. Examples of debris include non-operational satellites, rocket bodies, and fragments generated from explosions, collisions, or faulty payload assembly.

Loading next visibility...
Identifier
54337, 2022-151CG
Orbit
SSO
Country
Flag of CNCN / PRC
Related business
Manufacturer
SAST
Mission
Spacecraft
Bus & Motor
Unknown
Mass
Unknown
Launch date (UTC)
2022-11-11 (3 years ago)
Launch vehicle
Unknown
Launch site
Taiyaun Space Center, China (TSC)
Object type
Payload
Rocket body
Debris
Shape & HBR
Unknown shape, 0.1 m
Radar Cross Section
Small (<0.1 m²)

Expand to show TLE details & history
Last TLE update: 1 day ago

TLE from 1 day ago
0 CZ-6A DEB
1 54337U 22151CG  25352.98738454  .00000470  00000-0  28918-3 0  9990
2 54337  98.8440 350.4719 0051089 130.7984 229.7635 14.09720215158976
Epoch: 2025-12-18T23:41Z
TLE epoch observation values (Epoch: 2025-12-18T23:41:50.024Z)
Latitude
0.00001°
Longitude
-92.82154°
Altitude
887.227 km
Speed
7.396 km/s
True Right ascension
23h 21m 53s
True Declination
0° 00' 00"
Sunlit
Object was in daylight at epoch
Visualization orbit readout
Latitude
Unknown
Longitude
Unknown
Altitude
Unknown
Speed
Unknown
Apparent Right ascension
Unknown
Apparent Declination
Unknown
Sunlit
N/A
Visualization observer readout
Local Sidereal Time
06:45:05
Azimuth
Unknown
Elevation
Unknown
Doppler factor
Unknown
Orbital elements
Apogee altitude
894.474 km
Perigee altitude
820.542 km
Semi-major axis
7,235.645 km
Eccentricity
0.00511
Inclination
98.844°
RAAN
350.4719°
Arg. of periapsis
130.7984°
True anomaly
229.31843°
Mean anomaly
229.7635°
Eccentric anomaly
229.54078°
Mean motion
3.52637 °/min
Orbital period
102.09 mins
BSTAR
0.00028918
Loading maneuver chart data...
Computing Atmospheric mass density...
Loading historical data...
Loading historical data...
Loading historical data...
Loading historical data...
Loading historical data...
Loading historical data...
Loading historical data...

Documentation

Showing up to 5 results
|